Location: Arnolds Mill
(42.3415°N, 73.5951°W)
Time: 13:08:00
(UTC+00:00)

STARLINK-34399 - Pass Details

Date: 23 June 2025
Orbit: 301 x 303 km, 53.2° (Epoch: 26 June)

Event Time Altitude Azimuth Distance (km) Brightness Sun altitude
Exits shadow 06:01:26 18° 341° (NNW) 834 5.2 -22.6°
Drops below altitude 10° 06:03:13 10° 24° (NNE) 1,176 6.4 -22.5°
Sets 06:05:31 0° 45° (NE) 1,999 7.5 -22.3°
